When you browse on this site, cookies collect data to enhance your experience and personalize the content and advertising you see.
Visit our Privacy Policy to learn more. By continuing to use the site, you agree to this use of cookies and data.
  • In Lithuania
  • List of Countries
  • For 7 days
  • Water Temperature
  • Weather Map
  • Weather Widgets
  • user-avatar
    Login

    Hourly Weather Prutz

    Today, 25 August, Sunday

    Time Temperature Precipitation Wind Pressure Humidity
    00:00 +12°C° 0 mm 1 mps 637 mmHg 88%
    01:00 +12°C° 0 mm 1 mps 637 mmHg 87%
    02:00 +12°C° 0 mm 1 mps 637 mmHg 87%
    03:00 +12°C° 0 mm 1 mps 637 mmHg 87%
    04:00 +11°C° 0 mm 1 mps 637 mmHg 87%
    05:00 +13°C° 0 mm 1 mps 637 mmHg 84%
    06:00 +13°C° 0 mm 0 mps 638 mmHg 81%
    07:00 +14°C° 0 mm 0 mps 638 mmHg 78%
    08:00 +18°C° 0.2 mm 1 mps 639 mmHg 73%
    09:00 +19°C° 0.2 mm 1 mps 639 mmHg 67%
    10:00 +21°C° 0.2 mm 1 mps 640 mmHg 62%
    11:00 +21°C° 0.9 mm 1 mps 640 mmHg 63%
    12:00 +21°C° 0.9 mm 1 mps 639 mmHg 64%
    13:00 +21°C° 0.9 mm 2 mps 639 mmHg 65%
    14:00 +20°C° 1.5 mm 2 mps 639 mmHg 68%
    15:00 +20°C° 1.5 mm 2 mps 639 mmHg 72%
    16:00 +20°C° 1.5 mm 1 mps 639 mmHg 75%
    17:00 +19°C° 0.7 mm 1 mps 638 mmHg 80%
    18:00 +16°C° 0.7 mm 1 mps 638 mmHg 84%
    19:00 +15°C° 0.7 mm 1 mps 637 mmHg 89%
    20:00 +13°C° 0.1 mm 0 mps 637 mmHg 90%
    21:00 +12°C° 0.1 mm 0 mps 637 mmHg 91%
    22:00 +11°C° 0.1 mm 0 mps 637 mmHg 92%
    23:00 +11°C° 0 mm 0 mps 637 mmHg 92%

    Tomorrow, 26 August, Monday

    Time Temperature Precipitation Wind Pressure Humidity
    00:00 +11°C° 0 mm 0 mps 637 mmHg 91%
    01:00 +11°C° 0 mm 1 mps 637 mmHg 91%
    02:00 +11°C° 0 mm 1 mps 636 mmHg 91%
    03:00 +11°C° 0 mm 1 mps 636 mmHg 91%
    04:00 +11°C° 0 mm 1 mps 636 mmHg 90%
    05:00 +12°C° 0 mm 1 mps 637 mmHg 88%
    06:00 +14°C° 0 mm 1 mps 637 mmHg 85%
    07:00 +15°C° 0 mm 1 mps 638 mmHg 83%
    08:00 +18°C° 0 mm 1 mps 638 mmHg 75%
    09:00 +20°C° 0 mm 1 mps 639 mmHg 67%
    10:00 +22°C° 0 mm 1 mps 639 mmHg 59%
    11:00 +22°C° 0.5 mm 1 mps 639 mmHg 57%
    12:00 +23°C° 0.5 mm 1 mps 639 mmHg 55%
    13:00 +24°C° 0.5 mm 1 mps 639 mmHg 53%
    14:00 +23°C° 1.2 mm 1 mps 639 mmHg 58%
    15:00 +22°C° 1.2 mm 1 mps 639 mmHg 62%
    16:00 +21°C° 1.2 mm 2 mps 638 mmHg 66%
    17:00 +20°C° 0.9 mm 1 mps 638 mmHg 74%
    18:00 +18°C° 0.9 mm 1 mps 637 mmHg 81%
    19:00 +14°C° 0.9 mm 0 mps 636 mmHg 88%
    20:00 +13°C° 0.1 mm 0 mps 636 mmHg 88%
    21:00 +13°C° 0.1 mm 0 mps 636 mmHg 88%
    22:00 +13°C° 0.1 mm 1 mps 636 mmHg 89%
    23:00 +13°C° 0 mm 1 mps 636 mmHg 88%

    Day after tomorrow, 27 August, Tuesday

    Time Temperature Precipitation Wind Pressure Humidity
    00:00 +12°C° 0 mm 1 mps 636 mmHg 88%
    01:00 +12°C° 0 mm 1 mps 636 mmHg 88%
    02:00 +12°C° 0 mm 1 mps 636 mmHg 88%
    03:00 +12°C° 0 mm 1 mps 636 mmHg 88%
    04:00 +11°C° 0 mm 1 mps 636 mmHg 88%
    05:00 +13°C° 0 mm 1 mps 636 mmHg 86%
    06:00 +14°C° 0 mm 1 mps 637 mmHg 84%
    07:00 +16°C° 0 mm 1 mps 638 mmHg 81%
    08:00 +19°C° 0 mm 1 mps 638 mmHg 72%
    09:00 +21°C° 0 mm 1 mps 639 mmHg 62%
    10:00 +21°C° 0 mm 0 mps 640 mmHg 52%
    11:00 +24°C° 0 mm 1 mps 640 mmHg 49%
    12:00 +24°C° 0 mm 1 mps 640 mmHg 46%
    13:00 +25°C° 0 mm 1 mps 640 mmHg 42%
    14:00 +25°C° 0.2 mm 1 mps 640 mmHg 45%
    15:00 +24°C° 0.2 mm 1 mps 639 mmHg 48%
    16:00 +24°C° 0.2 mm 2 mps 639 mmHg 50%
    17:00 +21°C° 0.1 mm 1 mps 638 mmHg 61%
    18:00 +19°C° 0.1 mm 1 mps 638 mmHg 72%
    19:00 +15°C° 0.1 mm 0 mps 637 mmHg 82%
    20:00 +15°C° 0 mm 1 mps 637 mmHg 84%
    21:00 +14°C° 0 mm 1 mps 637 mmHg 86%
    22:00 +14°C° 0 mm 1 mps 637 mmHg 88%
    23:00 +13°C° 0 mm 1 mps 637 mmHg 87%

    28 August, Wednesday

    Time Temperature Precipitation Wind Pressure Humidity
    00:00 +13°C° 0 mm 1 mps 637 mmHg 87%
    01:00 +13°C° 0 mm 1 mps 636 mmHg 87%
    02:00 +13°C° 0 mm 1 mps 636 mmHg 87%
    03:00 +13°C° 0 mm 1 mps 636 mmHg 87%
    04:00 +13°C° 0 mm 1 mps 636 mmHg 87%
    05:00 +14°C° 0 mm 1 mps 637 mmHg 85%
    06:00 +15°C° 0 mm 1 mps 637 mmHg 83%
    07:00 +16°C° 0 mm 1 mps 637 mmHg 80%
    08:00 +19°C° 0 mm 1 mps 638 mmHg 73%
    09:00 +21°C° 0 mm 1 mps 638 mmHg 66%
    10:00 +20°C° 0 mm 0 mps 639 mmHg 58%
    11:00 +23°C° 0.3 mm 1 mps 639 mmHg 58%
    12:00 +23°C° 0.3 mm 1 mps 638 mmHg 57%
    13:00 +24°C° 0.3 mm 1 mps 638 mmHg 56%
    14:00 +23°C° 0.9 mm 1 mps 638 mmHg 61%
    15:00 +22°C° 0.9 mm 1 mps 638 mmHg 66%
    16:00 +21°C° 0.9 mm 1 mps 637 mmHg 70%
    17:00 +20°C° 0.8 mm 1 mps 637 mmHg 76%
    18:00 +18°C° 0.8 mm 1 mps 636 mmHg 82%
    19:00 +16°C° 0.8 mm 1 mps 636 mmHg 87%
    20:00 +15°C° 0.3 mm 1 mps 636 mmHg 87%
    21:00 +15°C° 0.3 mm 1 mps 636 mmHg 87%
    22:00 +14°C° 0.3 mm 1 mps 636 mmHg 87%
    23:00 +14°C° 0 mm 1 mps 636 mmHg 87%

    29 August, Thursday

    Time Temperature Precipitation Wind Pressure Humidity
    00:00 +14°C° 0 mm 1 mps 636 mmHg 87%
    01:00 +13°C° 0 mm 1 mps 636 mmHg 87%
    02:00 +13°C° 0 mm 1 mps 635 mmHg 87%
    03:00 +13°C° 0 mm 1 mps 635 mmHg 87%
    04:00 +12°C° 0 mm 1 mps 635 mmHg 88%
    05:00 +13°C° 0.2 mm 1 mps 636 mmHg 86%
    06:00 +14°C° 0.2 mm 1 mps 636 mmHg 84%
    07:00 +15°C° 0.2 mm 1 mps 637 mmHg 83%
    08:00 +18°C° 0.4 mm 1 mps 637 mmHg 79%
    09:00 +19°C° 0.4 mm 1 mps 638 mmHg 74%
    10:00 +20°C° 0.4 mm 1 mps 638 mmHg 70%
    11:00 +20°C° 1 mm 1 mps 638 mmHg 71%
    12:00 +21°C° 1 mm 1 mps 638 mmHg 71%
    13:00 +21°C° 1 mm 1 mps 638 mmHg 72%
    14:00 +20°C° 1.1 mm 2 mps 638 mmHg 73%
    15:00 +19°C° 1.1 mm 2 mps 637 mmHg 75%
    16:00 +19°C° 1.1 mm 2 mps 637 mmHg 76%
    17:00 +19°C° 0.9 mm 1 mps 637 mmHg 81%
    18:00 +16°C° 0.9 mm 1 mps 637 mmHg 85%
    19:00 +15°C° 0.9 mm 1 mps 637 mmHg 90%
    20:00 +14°C° 0.1 mm 1 mps 637 mmHg 90%
    21:00 +13°C° 0.1 mm 1 mps 637 mmHg 91%
    22:00 +13°C° 0.1 mm 1 mps 637 mmHg 91%
    23:00 +12°C° 0 mm 1 mps 637 mmHg 91%

    30 August, Friday

    Time Temperature Precipitation Wind Pressure Humidity
    00:00 +11°C° 0 mm 0 mps 637 mmHg 91%
    01:00 +11°C° 0 mm 0 mps 637 mmHg 92%
    02:00 +11°C° 0 mm 0 mps 637 mmHg 92%
    03:00 +10°C° 0 mm 0 mps 637 mmHg 93%
    04:00 +10°C° 0 mm 0 mps 636 mmHg 93%
    05:00 +11°C° 0 mm 0 mps 637 mmHg 92%
    06:00 +12°C° 0 mm 0 mps 638 mmHg 90%
    07:00 +13°C° 0 mm 0 mps 638 mmHg 88%
    08:00 +16°C° 0.1 mm 1 mps 639 mmHg 83%
    09:00 +18°C° 0.1 mm 1 mps 639 mmHg 78%
    10:00 +20°C° 0.1 mm 1 mps 640 mmHg 73%
    11:00 +20°C° 0.7 mm 1 mps 640 mmHg 71%
    12:00 +20°C° 0.7 mm 2 mps 640 mmHg 69%
    13:00 +21°C° 0.7 mm 2 mps 640 mmHg 67%
    14:00 +20°C° 1.3 mm 2 mps 639 mmHg 72%
    15:00 +20°C° 1.3 mm 1 mps 639 mmHg 77%
    16:00 +20°C° 1.3 mm 1 mps 638 mmHg 82%
    17:00 +19°C° 1.4 mm 1 mps 638 mmHg 85%
    18:00 +18°C° 1.4 mm 1 mps 638 mmHg 89%
    19:00 +15°C° 1.4 mm 1 mps 638 mmHg 92%
    20:00 +15°C° 0.5 mm 1 mps 638 mmHg 92%
    21:00 +14°C° 0.5 mm 1 mps 638 mmHg 91%
    22:00 +14°C° 0.5 mm 1 mps 638 mmHg 91%
    23:00 +13°C° 0 mm 1 mps 638 mmHg 90%
    Show more